Regional Weather Roundup
Issued by NWS New Orleans/Baton Rouge, LA

Home | Current Version | Previous Version | Graphics & Text | Print | Product List | Glossary On
Versions: 1 2 3 4 5 6 7 8 9 10 11 12 13 14 15 16 17 18 19 20 21 22 23 24 25 26 27 28 29 30 31 32 33 34 35 36 37 38 39 40 41 42 43 44 45 46 47 48 49 50
779
ASUS44 KLIX 010710
RWRLIX
NEW ORLEANS REGIONAL WEATHER ROUNDUP
NATIONAL WEATHER SERVICE NEW ORLEANS LA
200 AM CDT FRI AUG 01 2014

NOTE: "FAIR" INDICATES FEW OR NO CLOUDS BELOW 12,000 FEET WITH NO
      SIGNIFICANT WEATHER AND/OR OBSTRUCTIONS TO VISIBILITY.
      SKY/WX - SKY CONDITION AND SIGNIFICANT WEATHER.
      TMP - AIR TEMPERATURE.     DP    - DEWPOINT TEMPERATURE.
      RH  - RELATIVE HUMIDITY.   PRES  - PRESSURE.
      HI  - HEAT INDEX.          WCI   - WIND CHILL INDEX.

*  THESE STATIONS ARE NOT NWS OR FAA STATIONS AND ARE NOT UNDER
   NWS QUALITY CONTROL.

LAZ038-040-048-061>063-065>067-069-010800-
SOUTHEAST LOUISIANA

CITY           SKY/WX    TMP DP  RH WIND       PRES   REMARKS
N.O. AUDUBON     N/A     82  70  67 MISG        N/A
N.O. INTL ARPT CLOUDY    78  70  76 CALM      29.98F
N.O. LAKEFRONT CLOUDY    80  68  66 E6        29.99F
N.O. DOWNTOWN*   N/A     82  64  54 CALM      29.99F
SLIDELL        CLOUDY    74  69  85 CALM      29.98F
BATON ROUGE    CLOUDY    74  68  81 NE6       29.99F
BOOTHVILLE     CLEAR     77  70  79 SE3       29.98F
BELLE CHASSE   CLOUDY    75  71  87 CALM      29.98F
BOGALUSA*        N/A     73  68  84 CALM      30.02R
GALLIANO*      NOT AVBL
NEW ROADS*     CLOUDY    75  66  73 E7        29.98F
GONZALES*        N/A     76  73  89 CALM      29.98F
HAMMOND*       CLOUDY    73  66  78 CALM      30.01F
HOUMA*         MOCLDY    74  69  83 CALM      29.98F
PORT FOURCHON* SUNNY     82  64  54 SE3       29.99F

$$

MSZ070-080>082-010800-
SOUTHERN MISSISSIPPI

CITY           SKY/WX    TMP DP  RH WIND       PRES   REMARKS
MCCOMB         CLOUDY    73  64  73 E3        30.00F
GULFPORT       MOCLDY    78  67  68 CALM      29.98F
BILOXI         CLOUDY    75  67  77 NE3       29.98F
PASCAGOULA     MOCLDY    69  67  93 CALM      29.98F

$$

COASTAL OBSERVATIONS
LAKE AND NEARSHORE STATIONS

STATION/POSITION TIME  TEMP    WIND        PRES    WAVE
                       AIR SEA DIR/SP/G            HT/PER
                 (UTC) (F)     (DEG/KT/KT) (MB)    (FT/S)
PASCAGOULA       0700   75      20/  6/  7 1014.4
WAVELAND YACHT   0700   78      30/  4/  5 1014.7
GRAND ISLE       0700   82 87  140/  3/  5 1015.8
SOUTHWEST PASS   0700   81 85  140/  4/  5 1015.4
NEW CANAL        0700   81 83  200/  3/  4 1015.8
SHELL BEACH      0700   80 82  220/  2/  2 1015.2

OFFSHORE STATIONS

STATION/POSITION TIME  TEMP    WIND        PRES    WAVE
                       AIR SEA DIR/SP/G            HT/PER
                 (UTC) (F)     (DEG/KT/KT) (MB)    (FT/S)
64 S DAUPHIN ISL 0637   82 84  350/  2/  4 1015.1

$$




USA.gov is the U.S. government's official web portal to all federal, state and local government web resources and services.